CAPE
375 572 762 805 784 639 558 474 372 275 330 448 570 789 1067 1227 1216 1235 1307 1468 1514 1398 1440 1214 1173 1134 1027 870 922 921 865 817 1014 1187 1350 1360 1381 1316 1147 1048 1009 968 918
498 701 860 891 821 758 709 605 518 388 405 510 617 739 907 1071 1138 1195 1335 1471 1462 1484 1469 1300 1243 1178 1066 942 981 992 1023 1061 1158 1101 1162 1414 1322 1318 1098 1023 949 961 951
560 790 987 926 862 870 867 790 713 589 513 528 614 758 919 1139 1274 1339 1381 1487 1541 1558 1493 1340 1340 1302 1100 980 981 1059 1123 1164 1240 1081 1105 1108 1181 1154 1139 999 936 1012 1019
650 815 993 991 971 954 964 908 872 819 614 575 645 796 917 1140 1256 1336 1420 1483 1519 1568 1636 1521 1297 1027 870 913 987 1011 1006 999 992 910 980 997 939 1101 1122 1015 1054 1033 967
729 780 845 932 999 1065 1035 977 985 985 751 674 708 792 864 1046 1242 1355 1460 1354 1533 1557 1669 1568 1120 875 864 900 946 976 892 822 727 721 722 694 862 1116 1084 999 966 846 769
601 729 777 778 848 1039 1073 1060 1082 1018 872 764 785 836 856 934 1131 1334 1439 1405 1886 1621 1691 1379 909 760 775 817 902 937 696 563 471 576 699 786 806 1182 1130 957 845 649 562
447 633 728 733 762 871 1027 1092 1158 1039 937 867 898 934 975 989 980 1199 1350 1282 1328 1526 1547 1200 752 652 672 793 802 875 501 573 368 425 435 462 686 1146 1126 888 670 399 469
143 431 584 730 751 858 968 1057 1058 986 1002 993 965 983 1024 1124 1033 1001 1278 1389 1285 1403 1299 938 654 609 646 721 677 692 452 313 308 301 335 352 437 1073 1085 809 477 370 304
213 285 503 641 870 914 937 925 1000 1063 1088 1102 1059 1011 1028 1106 1099 1043 1221 1459 1314 1369 1183 838 491 487 672 659 518 467 394 199 133 229 225 332 643 974 908 479 335 238 134
157 220 359 638 929 955 994 996 898 1057 1191 1183 1159 1070 1059 1077 1146 1152 1186 1424 1254 1177 1153 940 579 463 656 702 480 343 232 119 83 158 142 223 681 892 862 554 368 194 98
113 206 371 582 743 800 1048 1092 1023 1177 1283 1241 1225 1192 1114 1070 1173 1195 1218 1330 1243 1116 1035 907 735 520 620 704 556 328 193 119 0 96 52 259 568 848 866 561 330 145 36
0 85 311 382 499 674 892 1170 1253 1374 1362 1348 1285 1335 1183 1048 1040 1118 1143 1270 1191 988 913 715 599 374 529 385 350 306 92 72 0 0 22 201 368 876 784 566 278 109 1
0 37 261 330 307 538 753 1015 1016 1176 1234 1250 1201 1249 1253 1122 1020 1073 1058 1175 1151 1000 781 715 496 258 357 343 200 99 63 44 98 43 1 207 606 843 680 544 182 116 13
0 0 130 255 291 368 490 730 849 876 917 905 1124 935 918 1175 998 905 850 928 1035 864 684 577 361 185 187 227 62 38 49 17 45 30 0 173 491 638 641 484 223 133 15
375 73 11 160 154 268 314 311 446 575 630 565 923 874 733 1062 977 869 799 725 729 646 647 457 311 142 40 143 33 0 0 5 49 30 3 143 314 344 661 522 312 160 76
1025 725 316 51 122 205 189 177 156 294 451 576 785 895 798 838 810 785 736 697 598 534 501 426 285 155 10 0 0 0 0 0 2 0 4 144 279 256 156 460 310 193 146
1105 1153 914 456 190 157 230 206 208 249 299 293 416 739 898 864 727 750 713 672 590 462 392 325 236 94 17 0 0 4 0 0 0 0 0 1 85 44 108 173 244 202 162
1016 1080 1290 1324 757 330 326 481 362 314 315 327 358 529 743 814 797 655 672 729 628 487 350 310 245 158 66 24 19 40 13 0 0 0 0 0 0 28 72 73 137 124 114
998 1069 1140 1596 1326 968 693 643 637 636 639 593 490 437 511 726 908 914 848 707 675 624 479 408 288 256 210 108 56 13 17 8 0 0 0 0 0 29 60 34 56 61 60
568 1071 1150 1418 1596 1555 1431 1061 959 998 1058 1054 971 811 811 732 900 1084 1117 928 752 641 533 432 492 257 342 235 113 49 8 0 0 1 1 2 0 3 16 51 35 52 70
0 122 1059 1138 1460 1620 1608 1359 1192 1155 1141 1165 1238 1319 1225 1017 960 1010 1098 1054 970 841 649 474 389 403 375 249 131 86 13 12 7 10 9 10 8 8 0 28 18 44 46
0 0 35 414 832 1360 1644 1530 1401 1357 1256 1261 1288 1448 1376 1290 1226 1118 1077 1099 1134 904 605 466 557 375 293 217 128 71 9 1 8 14 20 19 17 15 2 5 13 32 31
0 0 0 0 210 973 1606 1463 1184 1074 1030 1183 1292 1499 1480 1363 1385 1336 1221 1201 1154 922 700 447 491 412 269 135 86 13 19 5 8 4 6 18 11 2 3 1 1 12 17
0 0 5 139 571 1060 1360 1391 1457 1350 1196 1245 1303 1586 1392 1263 1371 1420 1336 1304 1269 1056 804 528 487 441 263 167 70 31 0 0 4 6 3 10 24 8 3 2 0 5 20
0 0 0 0 0 139 633 979 903 817 666 431 937 1072 1152 1279 1263 1252 1321 1214 1068 875 650 533 422 323 224 82 45 12 1 7 6 2 2 6 5 12 2 2 1 4 20
0 0 0 0 0 0 0 0 0 11 7 253 549 986 1066 895 983 1087 1108 1037 922 770 638 507 241 288 191 55 18 8 1 4 10 2 9 3 2 1 1 1 0 6 2
CIN
-553 -488 -417 -366 -342 -361 -341 -315 -315 -304 -275 -229 -182 -145 -109 -94 -85 -73 -60 -30 -16 -25 -18 -29 -24 -24 -26 -31 -27 -23 -27 -31 -31 -18 -4 -0 -0 -0 -0 -3 -1 -0 -1
-546 -492 -422 -379 -354 -344 -320 -312 -299 -293 -257 -208 -174 -154 -127 -106 -87 -86 -69 -43 -27 -16 -14 -28 -25 -25 -30 -28 -29 -32 -29 -29 -17 -16 -11 -0 -0 -0 -20 -5 -10 -1 -0
-524 -509 -402 -382 -353 -325 -308 -293 -267 -249 -239 -210 -168 -141 -119 -96 -75 -74 -70 -45 -25 -14 -18 -20 -22 -23 -30 -33 -27 -26 -25 -23 -13 -14 -18 -12 -0 -1 -0 -0 -2 -0 -0
-581 -530 -421 -370 -343 -315 -298 -279 -243 -210 -222 -197 -158 -127 -115 -91 -73 -73 -64 -44 -33 -14 -2 -7 -23 -36 -42 -41 -34 -31 -27 -21 -21 -27 -23 -20 -10 -1 -0 -0 -0 -0 -0
-599 -568 -482 -396 -341 -299 -291 -272 -240 -193 -201 -187 -144 -124 -111 -95 -73 -73 -61 -60 -33 -22 -6 -3 -32 -45 -42 -37 -31 -29 -35 -31 -34 -34 -34 -32 -12 -0 -0 -0 -0 -0 -3
-613 -581 -521 -444 -378 -318 -278 -263 -226 -202 -189 -171 -141 -120 -112 -105 -84 -74 -60 -55 -14 -21 -5 -21 -53 -56 -49 -33 -27 -30 -38 -46 -47 -38 -25 -17 -12 -0 -0 -0 -1 -6 -12
-640 -592 -525 -459 -400 -360 -293 -262 -223 -216 -195 -164 -124 -113 -107 -100 -99 -87 -69 -55 -41 -20 -17 -36 -64 -65 -53 -25 -20 -22 -44 -31 -57 -47 -37 -30 -13 -0 -0 -1 -5 -17 -12
-668 -616 -556 -470 -415 -366 -316 -269 -257 -247 -203 -153 -124 -117 -102 -93 -98 -106 -72 -51 -46 -29 -35 -55 -69 -66 -46 -28 -28 -28 -44 -55 -55 -48 -42 -34 -14 -0 -0 -0 -14 -14 -11
-669 -635 -580 -500 -401 -355 -320 -290 -269 -244 -215 -159 -126 -124 -113 -99 -94 -95 -77 -49 -47 -34 -48 -57 -80 -75 -40 -28 -39 -41 -59 -72 -80 -61 -55 -45 -16 -1 -0 -7 -9 -17 -25
-717 -662 -599 -513 -396 -351 -320 -279 -274 -251 -208 -160 -130 -122 -116 -107 -94 -77 -66 -47 -52 -52 -53 -53 -71 -76 -44 -26 -52 -45 -61 -83 -90 -64 -73 -58 -16 -0 -9 -17 -10 -10 -22
-721 -699 -623 -505 -437 -399 -322 -277 -257 -226 -190 -166 -131 -122 -119 -124 -98 -81 -61 -42 -41 -53 -51 -53 -55 -68 -51 -31 -49 -52 -65 -86 -0 -84 -92 -44 -15 -0 -0 -0 -4 -20 -46
-0 -701 -640 -612 -483 -427 -365 -274 -225 -187 -173 -165 -153 -128 -137 -136 -129 -104 -78 -43 -34 -49 -55 -62 -62 -70 -57 -76 -80 -65 -82 -98 -0 -0 -76 -55 -24 -0 -0 -0 -18 -22 -0
-0 -656 -630 -606 -607 -461 -395 -321 -294 -237 -205 -188 -183 -158 -145 -143 -139 -117 -96 -62 -45 -36 -62 -63 -71 -90 -72 -79 -95 -100 -92 -88 -89 -75 -8 -57 -7 -0 -0 -0 -20 -16 -5
-0 -0 -621 -574 -571 -547 -473 -390 -339 -316 -283 -268 -224 -224 -203 -144 -155 -160 -142 -102 -70 -67 -72 -81 -90 -93 -86 -74 -115 -117 -92 -86 -88 -71 -0 -59 -16 -3 -0 -0 -5 -6 -6
-395 -552 -599 -571 -557 -535 -502 -503 -447 -401 -370 -364 -275 -263 -269 -192 -190 -184 -171 -143 -123 -108 -93 -103 -104 -107 -116 -82 -105 -0 -0 -77 -83 -73 -17 -55 -33 -9 -1 -0 -0 -4 -7
-279 -313 -436 -499 -517 -527 -493 -512 -507 -487 -431 -378 -323 -292 -288 -262 -240 -214 -195 -169 -160 -139 -126 -119 -121 -113 -72 -0 -0 -0 -0 -0 -32 -0 -48 -45 -30 -19 -15 -1 -0 -0 -3
-237 -261 -301 -379 -467 -446 -458 -483 -487 -478 -462 -426 -402 -334 -285 -273 -265 -234 -210 -187 -177 -168 -151 -151 -146 -139 -138 -0 -0 -98 -0 -0 -0 -0 -0 -3 -42 -37 -16 -5 -2 -0 -0
-195 -206 -245 -305 -352 -394 -428 -427 -449 -460 -450 -438 -412 -369 -309 -280 -255 -261 -223 -188 -177 -162 -174 -166 -164 -147 -141 -115 -91 -79 -77 -0 -0 -0 -0 -0 -0 -48 -18 -19 -1 -1 -2
-158 -153 -221 -267 -284 -311 -359 -386 -364 -371 -360 -373 -369 -364 -332 -278 -232 -213 -198 -189 -156 -142 -152 -156 -173 -133 -118 -99 -82 -82 -69 -67 -2 -1 -0 -0 -0 -35 -21 -11 -18 -12 -9
-149 -135 -175 -219 -230 -265 -286 -310 -314 -300 -271 -266 -272 -276 -254 -252 -212 -178 -150 -146 -138 -136 -134 -145 -120 -151 -100 -76 -61 -52 -22 -0 -4 -1 -3 -19 -0 -43 -20 -7 -11 -9 -6
-0 -134 -151 -204 -209 -264 -249 -256 -269 -247 -259 -234 -231 -204 -173 -175 -175 -164 -140 -110 -91 -89 -108 -117 -125 -100 -79 -74 -60 -50 -37 -15 -24 -32 -28 -15 -22 -17 -0 -12 -15 -5 -9
-0 -0 -174 -174 -207 -251 -261 -268 -266 -263 -278 -252 -213 -171 -159 -132 -132 -136 -132 -100 -59 -62 -105 -116 -79 -103 -90 -93 -70 -57 -5 -1 -10 -11 -23 -10 -18 -16 -16 -14 -11 -22 -25
-0 -0 -0 -0 -207 -230 -243 -246 -271 -263 -233 -195 -165 -156 -150 -128 -101 -91 -105 -85 -52 -55 -86 -113 -92 -80 -91 -106 -109 -73 -4 -9 -30 -34 -24 -22 -5 -16 -26 -3 -7 -23 -37
-0 -0 -387 -418 -324 -251 -207 -189 -194 -192 -136 -116 -97 -121 -139 -142 -105 -68 -83 -67 -43 -43 -53 -91 -74 -66 -88 -88 -99 -92 -0 -2 -18 -10 -36 -29 -1 -8 -16 -0 -34 -27 -33
-0 -0 -0 -0 -0 -402 -292 -177 -188 -173 -143 -156 -117 -108 -116 -112 -98 -75 -55 -56 -71 -75 -79 -81 -79 -78 -91 -130 -150 -136 -22 -23 -32 -17 -23 -17 -27 -19 -9 -1 -3 -35 -45
-0 -0 -0 -0 -0 -0 -0 -0 -0 -161 -172 -167 -174 -120 -95 -121 -97 -83 -65 -59 -64 -85 -79 -71 -118 -87 -109 -161 -180 -183 -19 -14 -7 -15 -7 -34 -20 -0 -0 -0 -11 -44 -56
Wind_Speed
12 14 13 13 13 13 12 12 12 13 13 14 15 16 17 17 17 17 17 17 17 16 16 15 15 15 15 14 13 12 12 11 11 12 12 12 12 12 12 11 13 13 13
13 15 15 12 12 12 12 12 12 12 13 13 14 15 16 16 17 18 18 17 16 16 15 15 15 15 15 15 14 13 11 11 10 10 10 11 11 11 10 9 11 12 13
14 14 12 11 11 11 11 11 11 12 12 13 13 15 16 16 17 17 17 17 16 16 16 15 15 15 15 14 14 13 13 11 10 9 10 10 10 10 10 11 12 12 12
15 13 10 9 10 10 10 11 10 10 11 12 13 14 15 16 17 17 17 17 16 16 16 15 15 15 14 14 14 14 13 12 11 10 9 9 9 9 9 10 11 11 12
10 10 10 8 8 9 10 10 10 10 11 12 13 14 15 16 16 16 16 16 16 16 15 15 15 15 15 15 15 14 13 12 12 11 10 9 9 8 9 10 10 10 11
9 9 9 8 8 9 10 10 11 11 11 12 14 14 15 15 16 15 14 14 15 15 15 14 14 14 14 14 14 13 12 12 12 11 10 9 8 8 7 8 8 9 9
8 7 8 8 7 8 10 11 12 12 12 12 14 15 14 15 14 14 13 14 13 13 13 13 13 13 13 12 12 12 12 11 12 11 10 9 8 7 6 6 7 7 9
8 8 7 7 7 7 9 11 12 12 12 13 13 14 14 14 13 13 13 12 12 12 12 12 12 12 11 11 11 11 11 11 11 10 9 9 7 7 6 5 5 6 7
4 7 6 6 6 7 8 10 11 12 12 13 13 13 13 12 12 11 12 11 11 11 11 10 10 10 10 10 10 10 10 10 10 9 9 9 7 6 5 4 4 5 6
5 5 6 5 4 5 6 9 10 11 12 13 13 12 12 11 11 10 10 10 10 10 10 9 9 9 9 9 8 9 9 9 9 10 8 7 6 4 4 2 3 4 5
4 5 4 4 4 4 5 7 8 10 11 12 12 11 11 9 9 9 9 9 9 9 9 9 8 8 8 8 7 8 8 7 7 8 8 6 7 6 3 1 2 2 4
8 8 7 8 6 3 2 5 5 6 7 9 10 10 9 8 8 9 8 8 8 8 9 8 8 7 7 7 6 6 6 6 5 5 5 6 5 4 6 4 1 2 3
13 9 8 8 9 6 4 4 3 3 4 6 8 9 7 7 6 6 6 7 7 7 7 7 6 5 5 5 5 5 5 4 4 4 4 4 6 4 4 5 2 1 2
13 13 11 10 9 9 6 5 4 4 4 4 6 7 5 5 6 5 5 6 6 6 6 6 5 4 4 4 4 4 4 4 2 2 3 5 4 5 5 3 2 1 2
14 12 13 12 12 11 9 8 6 5 5 4 5 6 5 4 5 4 4 5 5 6 5 4 4 3 3 3 3 3 2 2 2 1 1 4 6 2 2 2 1 2 4
14 14 13 14 13 13 13 11 10 8 7 6 5 5 6 3 3 4 3 4 5 5 4 3 4 3 1 1 1 2 1 1 0 1 1 4 4 3 3 3 3 4 5
17 14 14 14 14 15 15 13 12 11 9 9 7 6 6 5 3 3 3 3 4 4 3 1 2 2 2 3 2 3 3 1 2 2 2 3 3 7 7 7 7 6 7
20 17 14 14 13 13 14 14 14 13 12 11 9 8 8 6 5 4 4 4 3 2 2 1 1 2 2 3 5 4 5 4 3 4 4 4 5 10 13 21 12 10 9
23 21 18 16 15 14 15 15 16 17 15 13 11 9 9 8 7 6 5 5 4 3 3 2 3 3 4 5 5 6 7 7 6 5 5 5 7 9 11 17 20 21 10
25 24 23 20 18 17 19 21 20 18 17 14 11 11 10 10 9 7 7 6 6 6 6 5 4 4 7 6 7 8 9 9 8 6 7 9 7 12 14 14 11 7 11
24 23 24 23 20 21 21 21 21 18 17 19 17 14 12 12 10 10 10 9 9 9 8 7 7 6 6 8 11 13 12 11 9 9 8 9 10 9 14 6 9 9 11
28 26 25 25 23 21 21 21 25 21 23 21 21 16 13 12 12 13 13 12 11 11 10 9 8 9 10 6 10 16 18 16 11 10 9 7 9 7 11 10 11 12 11
36 33 31 28 26 24 24 23 26 22 23 24 22 22 17 15 15 15 14 12 12 11 11 11 11 10 9 9 8 13 17 18 17 16 11 11 10 8 8 11 11 14 12
32 28 25 27 26 25 23 22 24 26 26 25 23 23 18 17 17 17 16 15 14 13 13 13 13 13 11 11 11 12 18 19 20 20 20 13 11 11 9 13 15 14 13
19 18 15 14 17 17 17 19 21 25 26 24 27 21 22 21 20 19 18 17 17 17 16 14 15 15 14 13 13 15 15 18 19 21 26 17 13 12 12 13 15 13 12
10 9 8 7 10 10 11 13 17 21 27 26 26 27 30 27 23 23 22 20 18 17 17 16 16 17 16 16 13 12 14 17 16 17 20 17 14 18 9 13 18 16 13
Wind_Direction
122 122 114 107 98 86 81 80 78 75 74 76 78 78 81 83 82 82 80 79 75 71 66 57 54 50 50 48 46 43 42 40 41 46 51 48 49 48 41 40 43 45 48
115 124 122 111 100 91 85 84 82 80 79 80 83 84 86 85 85 86 84 80 74 69 63 61 58 56 53 52 52 48 41 39 37 36 38 45 46 43 39 32 40 46 47
124 124 121 111 103 96 88 87 84 84 83 85 86 89 91 91 91 90 86 83 76 73 68 63 59 56 55 54 51 51 51 41 33 38 24 27 33 38 39 43 46 49 49
127 124 117 112 104 100 93 91 88 87 88 90 92 94 95 96 97 95 89 86 81 76 70 64 60 60 57 58 57 55 51 49 42 27 21 20 22 37 40 45 49 52 56
123 124 118 114 105 103 97 93 94 93 95 97 99 100 100 99 100 95 90 85 79 78 70 64 62 60 59 58 61 59 50 47 46 40 23 17 22 37 47 52 51 54 54
124 123 120 115 110 104 102 98 98 100 100 103 106 107 105 104 102 95 89 85 82 77 72 69 67 67 66 62 64 55 38 43 42 37 27 27 33 47 49 47 44 49 47
128 123 121 118 114 109 108 106 106 105 107 108 111 112 110 109 105 99 94 90 84 79 76 73 73 72 67 62 65 61 37 47 43 42 35 24 34 47 46 39 40 47 52
135 127 121 123 120 113 112 112 111 109 110 112 115 116 116 112 107 104 100 95 90 87 83 79 79 74 64 59 61 63 50 48 46 45 41 29 45 48 41 42 36 38 37
141 127 120 117 122 119 115 116 114 112 113 116 118 119 118 115 110 108 106 101 94 95 90 88 81 72 65 60 54 63 58 52 43 50 62 57 54 49 30 12 13 16 25
155 145 131 125 127 127 117 119 118 115 117 118 120 121 120 117 115 111 109 107 102 100 99 96 87 75 65 64 56 62 57 42 48 75 66 72 78 36 34 33 344 17 20
190 173 166 148 146 147 126 123 120 117 119 121 122 122 121 115 115 113 110 111 106 101 107 103 98 88 66 64 54 69 58 54 59 61 53 63 90 83 46 31 341 354 8
197 190 181 157 155 170 157 135 127 120 119 120 123 123 120 118 117 118 117 116 112 108 114 109 99 88 63 50 56 66 48 44 54 56 57 84 93 92 103 98 51 350 356
195 195 197 183 165 174 190 168 161 142 130 127 130 129 121 122 119 116 113 118 116 115 107 109 95 75 67 62 54 43 43 51 33 42 48 91 108 107 114 107 83 345 333
204 197 198 202 186 180 196 202 192 172 158 150 145 140 130 124 131 129 124 129 126 123 115 117 109 82 59 67 50 32 26 33 57 68 59 128 135 128 132 132 99 152 285
209 212 203 201 199 195 203 209 208 210 195 183 158 159 148 139 141 137 132 134 135 133 128 123 124 101 59 70 41 46 80 25 68 86 13 152 154 186 206 163 219 202 258
217 216 221 219 212 211 213 211 210 217 213 202 193 185 176 172 157 156 151 150 144 146 139 127 132 133 96 55 61 19 20 15 61 128 133 163 189 205 238 229 235 240 233
229 221 222 224 228 221 213 222 233 233 227 218 220 215 202 209 209 187 184 180 164 156 148 86 40 47 354 335 326 340 338 303 289 226 222 188 226 287 288 276 262 233 206
244 236 229 242 228 228 226 235 242 242 241 243 242 239 224 229 239 231 208 216 201 184 179 183 12 358 344 314 315 318 325 325 277 273 241 230 265 292 293 292 287 257 225
242 244 242 240 236 233 242 244 250 255 255 258 258 248 238 244 250 249 238 246 225 237 233 248 306 319 329 327 318 318 321 321 321 295 261 242 275 283 294 291 281 256 239
242 246 249 245 247 245 253 258 258 256 257 259 257 260 257 256 252 253 262 254 247 256 264 270 272 298 319 323 324 318 316 318 317 301 286 294 272 286 290 288 266 241 231
247 243 245 249 249 251 251 250 253 245 246 260 266 266 265 263 257 256 268 269 265 257 258 258 285 285 305 318 327 322 320 314 307 302 296 292 287 272 285 260 259 252 244
253 247 242 246 249 244 247 246 258 253 258 261 264 266 260 262 265 265 267 271 268 270 266 252 256 291 299 293 318 321 321 323 310 298 299 275 267 266 273 260 248 250 249
258 256 252 248 252 252 254 256 261 260 265 262 264 269 268 271 272 271 267 268 263 263 260 255 254 265 279 287 293 315 323 318 325 319 299 293 272 267 263 255 243 248 249
260 259 259 257 259 260 256 255 254 258 260 260 263 269 272 272 274 273 272 269 265 265 267 264 259 257 269 279 294 290 308 323 322 321 316 300 280 252 241 247 243 248 244
253 255 254 255 260 260 258 259 262 266 269 271 269 273 274 278 277 274 273 272 268 270 272 268 268 257 255 271 282 303 300 309 316 318 314 308 293 272 243 240 236 241 231
241 242 242 258 265 270 272 277 278 277 275 274 279 280 278 281 280 278 275 270 268 264 264 267 272 257 254 267 269 280 293 307 304 305 309 308 297 289 263 242 242 243 238